BD-2-G7 (41586 NORAD) Tracking and Keplerian Element Data

This shows tracking and keplerian element data for the satellite.

Feedback or suggestion? Click here.




ElementValue
Catalog41586
NameBD-2-G7
Epoch Orbit904
Epoch Day322.86563895
Epoch Year2018
RAAN11.2804
Inclination0.7346
Eccentricity0.0008226
Argument of Perigee21.8998
Mean Anonmoly86.8981
Mean Motion1.00275744
Decay Rate-3.46E-06
L11 41586U 16037A 18322.86563895 -.00000346 00000-0 00000-0 0 9991
L22 41586 0.7346 11.2804 0008226 21.8998 86.8981 1.00275744 9040

Live tracking and technical data element details for BD-2-G7 (NORAD 41586). BD-2-G7 can be tracked NOW for your location showing map with azimuth and elevation plus other details from your city location.

Track the satellite on the map from your city or location and see movement details for azimuth, elevation, latitude, longitude, range, height, and movement on the map or in text.







IsCatalogInMostPopularTable: catalog: 41586, numindb: 112
Update: records affected: 1



GetName: 41586 BD-2-G7

Hit Count: updated at: Mon, 19 Nov 2018 13:57:58 GMT